User: anonymous   Login
Location: Ostrava
(49.8330°N, 18.2830°E)
Time: 13:25:59
(UTC+01:00)
Language:

Cosmos 1263 Rocket - Orbit

View from above orbital plane
View from above orbital plane
View from above satellite
View from above satellite

Ground track
Ground track

The orbit data is extracted from the following two-line orbital elements,

1 12389U 81033B   15058.50844060  .00070769  29073-6  55646-3 0  9999
2 12389 082.8641 217.0818 0128916 261.2121 158.2444 15.60919211749129
Epoch (UTC): 27 February 2015 12:12:09
Eccentricity: 0.0128916
inclination: 82.8641°
perigee height: 298 km
apogee height: 472 km
right ascension of ascending node: 217.0818°
argument of perigee: 261.2121°
revolutions per day: 15.60919211
mean anomaly at epoch: 158.2444°
orbit number at epoch: 74912

The dashed part of the orbit path shows where the satellite is in the earth's shadow,  

DLR